GW4623 Weather Reports


time (UTC)temp
F
wind
direction
speed
knots
gust
knots
rain 1hr
in
rain 24hr
in
rain mn
in
humidity
%
barometer
mb
20260906173944 80 57 1.7 3.5 0.00 0.00 0.00 72 1019.1
20260906173439 81 201 0.0 3.5 0.00 0.00 0.00 71 1019.0
20260906172938 82 56 0.0 2.6 0.00 0.00 0.00 70 1019.1
20260906172430 82 217 1.7 3.5 0.00 0.00 0.00 69 1019.3
20260906171925 81 76 0.0 2.6 0.00 0.00 0.00 71 1019.2
20260906171420 80 31 0.0 2.6 0.00 0.00 0.00 73 1019.1
20260906170915 80 89 1.7 7.8 0.00 0.00 0.00 72 1019.4
20260906170411 79 229 0.9 6.1 0.00 0.00 0.00 73 1019.4
20260906165908 79 240 1.7 3.5 0.00 0.00 0.00 74 1019.4
20260906165407 79 207 2.6 4.3 0.00 0.00 0.00 74 1019.4
20260906164902 80 203 1.7 2.6 0.00 0.00 0.00 72 1019.3
20260906164401 81 207 1.7 3.5 0.00 0.00 0.00 71 1019.1
20260906163857 80 73 2.6 3.5 0.00 0.00 0.00 73 1019.2
20260906163353 80 220 2.6 4.3 0.00 0.00 0.00 72 1019.5
20260906162850 80 299 0.9 3.5 0.00 0.00 0.00 73 1019.7
20260906162349 79 244 0.9 1.7 0.00 0.00 0.00 74 1019.4
20260906161844 78 130 0.9 4.3 0.00 0.00 0.00 76 1019.7
20260906161343 78 234 0.0 5.2 0.00 0.00 0.00 76 1019.6
20260906160842 78 219 0.0 3.5 0.00 0.00 0.00 76 1019.7
20260906160336 77 114 0.9 2.6 0.00 0.00 0.00 79 1019.8
20260906155835 76 94 0.9 3.5 0.00 0.00 0.00 81 1019.8
20260906155329 75 228 0.0 5.2 0.00 0.00 0.00 83 1020.0
20260906154825 75 115 1.7 2.6 0.00 0.00 0.00 83 1019.7
20260906154320 75 141 0.9 2.6 0.00 0.00 0.00 84 1019.6
20260906153818 75 115 2.6 3.5 0.00 0.00 0.00 84 1019.7
20260906153312 73 261 0.0 2.6 0.00 0.00 0.00 87 1019.8
20260906152807 73 14 0.0 1.7 0.00 0.00 0.00 87 1019.9
20260906152306 73 224 1.7 2.6 0.00 0.00 0.00 88 1019.8
20260906151801 73 224 3.5 3.5 0.00 0.00 0.00 87 1019.9
20260906151258 73 171 0.0 1.7 0.00 0.00 0.00 87 1019.9
20260906150753 73 342 1.7 2.6 0.00 0.00 0.00 87 1019.9
20260906150248 73 254 1.7 2.6 0.00 0.00 0.00 87 1019.9
20260906145748 73 122 1.7 2.6 0.00 0.00 0.00 87 1019.6
20260906145246 73 291 0.9 1.7 0.00 0.00 0.00 87 1019.7
20260906144742 73 228 0.0 1.7 0.00 0.00 0.00 88 1019.7
20260906144242 73 232 1.7 1.7 0.00 0.00 0.00 88 1019.8
20260906143736 73 180 0.9 2.6 0.00 0.00 0.00 88 1019.7
20260906143233 73 89 0.0 2.6 0.00 0.00 0.00 89 1019.8
20260906142732 72 118 2.6 2.6 0.00 0.00 0.00 89 1019.6
20260906142228 72 123 1.7 2.6 0.00 0.00 0.00 89 1019.7
20260906141726 72 249 1.7 2.6 0.00 0.00 0.00 90 1019.6
20260906141222 72 222 1.7 2.6 0.00 0.00 0.00 90 1019.7
20260906140721 72 244 0.9 2.6 0.00 0.00 0.00 91 1019.6
20260906140216 72 255 0.9 2.6 0.00 0.00 0.00 91 1019.6
20260906135712 71 74 1.7 2.6 0.00 0.00 0.00 92 1019.6
20260906135209 71 93 0.0 1.7 0.00 0.00 0.00 93 1019.6
20260906134704 71 79 0.0 1.7 0.00 0.00 0.00 93 1019.4
20260906134159 71 97 0.9 2.6 0.00 0.00 0.00 94 1019.5
20260906133655 71 312 0.9 3.5 0.00 0.00 0.00 94 1019.6
20260906133149 70 141 0.0 2.6 0.00 0.00 0.00 95 1019.5
20260906132639 70 135 0.9 2.6 0.00 0.00 0.00 95 1019.3
20260906132135 69 72 1.7 2.6 0.00 0.00 0.00 97 1019.3
20260906131630 69 83 0.9 1.7 0.00 0.00 0.00 98 1019.4
20260906131125 69 120 1.7 4.3 0.00 0.00 0.00 99 1019.5
20260906130620 69 81 0.0 1.7 0.00 0.00 0.00 99 1019.3
20260906130115 68 69 0.0 1.7 0.00 0.00 0.00 99 1019.4
20260906125612 68 54 0.9 2.6 0.00 0.00 0.00 99 1019.3
20260906125106 68 20 1.7 2.6 0.00 0.00 0.00 99 1019.4
20260906124602 68 49 1.7 1.7 0.00 0.00 0.00 99 1019.3
20260906124057 67 86 0.9 2.6 0.00 0.00 0.00 99 1019.3
20260906123556 67 72 0.0 1.7 0.00 0.00 0.00 99 1019.2
20260906123051 67 77 1.7 2.6 0.00 0.00 0.00 99 1019.3
20260906122550 67 212 0.0 0.0 0.00 0.00 0.00 99 1019.3
20260906122047 66 106 0.0 1.7 0.00 0.00 0.00 99 1019.3
20260906121543 66 91 0.9 1.7 0.00 0.00 0.00 99 1019.2
20260906121039 66 77 0.0 1.7 0.00 0.00 0.00 99 1019.0
20260906120534 66 69 0.9 1.7 0.00 0.00 0.00 99 1019.1
20260906120031 66 57 0.9 1.7 0.00 0.00 0.00 99 1019.1
20260906115530 66 61 0.0 1.7 0.00 0.00 0.00 99 1019.2
20260906115026 66 58 0.9 1.7 0.00 0.00 0.00 99 1019.0
20260906114520 66 79 0.0 1.7 0.00 0.00 0.00 99 1019.1
20260906114016 66 100 0.0 0.9 0.00 0.00 0.00 99 1018.8
20260906113515 66 68 1.7 1.7 0.00 0.00 0.00 99 1018.8
20260906113010 65 85 0.9 1.7 0.00 0.00 0.00 99 1018.9
20260906112505 66 73 0.0 0.9 0.00 0.00 0.00 99 1019.0
20260906112001 66 73 0.0 1.7 0.00 0.00 0.00 99 1018.8
20260906111500 66 113 0.0 1.7 0.00 0.00 0.00 99 1018.7
20260906110956 66 49 0.0 1.7 0.00 0.00 0.00 99 1018.5
20260906110451 66 59 0.0 2.6 0.00 0.00 0.00 99 1018.6
20260906105949 66 59 0.9 1.7 0.00 0.00 0.00 99 1018.5
20260906105446 66 70 0.9 1.7 0.00 0.00 0.00 99 1018.6
20260906104941 66 37 0.0 1.7 0.00 0.00 0.00 99 1018.7
20260906104440 66 70 1.7 1.7 0.00 0.00 0.00 99 1018.5
20260906103939 66 99 0.9 0.9 0.00 0.00 0.00 99 1018.6
20260906103438 66 135 0.0 1.7 0.00 0.00 0.00 99 1018.6
20260906102933 66 50 0.0 0.9 0.00 0.00 0.00 99 1018.5
20260906102433 66 100 0.0 0.9 0.00 0.00 0.00 99 1018.6
20260906101927 66 74 0.0 1.7 0.00 0.00 0.00 99 1018.7
20260906101423 67 89 0.0 0.0 0.00 0.00 0.00 99 1018.2
20260906100918 67 53 0.9 1.7 0.00 0.00 0.00 99 1018.5
20260906100417 67 89 0.0 0.9 0.00 0.00 0.00 99 1018.4
20260906095912 67 51 0.9 1.7 0.00 0.00 0.00 99 1018.4
20260906095408 67 89 0.0 0.9 0.00 0.00 0.00 99 1018.1
20260906094907 67 84 0.0 0.9 0.00 0.00 0.00 99 1018.0
20260906094403 67 82 0.0 1.7 0.00 0.00 0.00 99 1017.8
20260906093858 68 44 1.7 2.6 0.00 0.00 0.00 99 1017.8
20260906093355 67 60 0.9 1.7 0.00 0.00 0.00 99 1017.6
20260906092855 67 60 0.0 0.9 0.00 0.00 0.00 99 1017.8
20260906092355 68 0 0.0 1.7 0.00 0.00 0.00 99 1017.7
20260906091850 68 38 0.0 0.9 0.00 0.00 0.00 98 1017.7
20260906091346 68 132 0.0 0.9 0.00 0.00 0.00 98 1017.6
20260906090842 68 36 0.0 0.9 0.00 0.00 0.00 98 1017.6
20260906090342 68 63 0.0 0.0 0.00 0.00 0.00 98 1017.7
20260906085836 68 83 0.0 0.9 0.00 0.00 0.00 98 1017.8
20260906085330 68 102 0.0 0.9 0.00 0.00 0.00 98 1017.5
20260906084825 68 57 0.0 1.7 0.00 0.00 0.00 97 1017.6
20260906084324 68 68 0.0 0.9 0.00 0.00 0.00 97 1017.8
20260906083819 68 69 0.0 1.7 0.00 0.00 0.00 97 1017.7
20260906083314 69 45 0.9 1.7 0.00 0.00 0.00 97 1017.8
20260906082808 68 70 0.9 2.6 0.00 0.00 0.00 97 1017.5
20260906082306 68 72 0.9 1.7 0.00 0.00 0.00 98 1017.6
20260906081759 68 44 0.0 1.7 0.00 0.00 0.00 97 1017.6
20260906081255 68 53 0.0 0.9 0.00 0.00 0.00 97 1017.7
20260906080751 68 37 0.0 0.9 0.00 0.00 0.00 97 1017.8
20260906080248 68 79 0.9 1.7 0.00 0.00 0.00 97 1017.6
20260906075741 69 52 0.0 0.9 0.00 0.00 0.00 97 1017.8
20260906075241 69 29 0.0 1.7 0.00 0.00 0.00 97 1017.7
20260906074737 69 81 0.0 0.9 0.00 0.00 0.00 96 1017.7
20260906074236 69 37 0.9 1.7 0.00 0.00 0.00 96 1017.7
20260906073731 69 50 1.7 1.7 0.00 0.00 0.00 96 1017.7
20260906073231 69 81 0.9 1.7 0.00 0.00 0.00 96 1017.8
20260906072726 69 45 1.7 1.7 0.00 0.00 0.00 96 1017.8
20260906072222 69 43 1.7 1.7 0.00 0.00 0.00 95 1017.8
20260906071718 70 45 0.9 1.7 0.00 0.00 0.00 95 1017.7
20260906071218 70 71 0.9 1.7 0.00 0.00 0.00 94 1018.0
20260906070714 70 37 0.9 1.7 0.00 0.00 0.00 94 1017.9
20260906070210 70 68 1.7 1.7 0.00 0.00 0.00 94 1018.2
20260906065704 70 50 0.0 1.7 0.00 0.00 0.00 94 1018.1
20260906065159 70 42 0.9 1.7 0.00 0.00 0.00 94 1018.0
20260906064655 70 68 0.0 1.7 0.00 0.00 0.00 94 1018.2
20260906064150 70 44 0.9 1.7 0.00 0.00 0.00 94 1018.0
20260906063645 70 57 0.9 1.7 0.00 0.00 0.00 94 1018.0
20260906063141 70 66 0.0 1.7 0.00 0.00 0.00 95 1018.0
20260906062637 70 59 0.9 2.6 0.00 0.00 0.00 95 1018.0
20260906062135 70 45 0.0 1.7 0.00 0.00 0.00 95 1018.0
20260906061631 70 40 0.0 1.7 0.00 0.00 0.00 95 1018.2
20260906061131 70 38 0.9 2.6 0.00 0.00 0.00 94 1018.1
20260906060627 70 53 1.7 1.7 0.00 0.00 0.00 95 1018.1
20260906060120 70 89 0.0 0.9 0.00 0.00 0.00 95 1018.1
20260906055615 70 75 0.0 1.7 0.00 0.00 0.00 94 1018.0
20260906055110 70 58 0.0 0.9 0.00 0.00 0.00 94 1018.1
20260906054610 70 100 0.0 0.9 0.00 0.00 0.00 94 1018.1
20260906054100 70 58 0.0 1.7 0.00 0.00 0.00 94 1018.2
20260906053556 70 27 1.7 1.7 0.00 0.00 0.00 94 1018.2
20260906053052 70 15 0.0 0.9 0.00 0.00 0.00 94 1018.0
20260906052547 70 38 0.0 1.7 0.00 0.00 0.00 94 1018.0
20260906052044 70 51 0.0 1.7 0.00 0.00 0.00 94 1018.0
20260906051539 70 28 0.0 0.9 0.00 0.00 0.00 94 1018.1
20260906051034 70 44 0.0 0.0 0.00 0.00 0.00 93 1017.8
20260906050530 70 113 0.0 0.0 0.00 0.00 0.00 93 1018.0
20260906050024 70 46 0.0 1.7 0.00 0.00 0.00 93 1018.1
20260906045523 70 53 0.0 0.0 0.00 0.00 0.00 93 1018.1
20260906045019 71 89 0.0 0.9 0.00 0.00 0.00 92 1018.1
20260906044514 70 75 0.9 0.9 0.00 0.00 0.00 92 1018.2
20260906044009 70 89 0.0 0.0 0.00 0.00 0.00 92 1018.1
20260906043505 71 129 0.0 0.0 0.00 0.00 0.00 92 1018.5
20260906043001 71 89 0.0 0.9 0.00 0.00 0.00 92 1018.5
20260906042500 71 50 0.0 1.7 0.00 0.00 0.00 92 1018.5
20260906041959 70 32 0.0 0.9 0.00 0.00 0.00 93 1018.2
20260906041456 70 82 0.0 0.9 0.00 0.00 0.00 92 1018.2
20260906040955 70 60 0.0 0.0 0.00 0.00 0.00 93 1018.2
20260906040450 70 66 0.0 0.0 0.00 0.00 0.00 92 1018.2
20260906035946 70 62 0.0 0.0 0.00 0.00 0.00 92 1018.4
20260906035441 70 50 0.0 0.9 0.00 0.00 0.00 91 1018.5
20260906034937 71 117 0.0 0.9 0.00 0.00 0.00 91 1018.5
20260906034436 71 49 0.0 0.9 0.00 0.00 0.00 91 1018.4
20260906033932 71 117 0.0 0.0 0.00 0.00 0.00 90 1018.5
20260906033432 71 72 0.0 0.9 0.00 0.00 0.00 90 1018.5
20260906032928 72 50 0.0 0.0 0.00 0.00 0.00 89 1018.4
20260906032424 72 50 0.0 0.9 0.00 0.00 0.00 88 1018.6
20260906031918 72 50 0.0 0.9 0.00 0.00 0.00 88 1018.4
20260906031414 73 89 0.0 0.9 0.00 0.00 0.00 87 1018.7
20260906030908 73 81 0.0 0.9 0.00 0.00 0.00 86 1018.5
20260906030404 74 70 0.0 0.9 0.00 0.00 0.00 85 1018.7
20260906025858 74 50 0.0 0.9 0.00 0.00 0.00 84 1018.6
20260906025352 74 50 0.0 1.7 0.00 0.00 0.00 83 1018.7
20260906024851 75 89 0.0 0.9 0.00 0.00 0.00 82 1018.7
20260906024351 75 38 0.0 0.9 0.00 0.00 0.00 82 1018.8
20260906023846 75 297 0.9 1.7 0.00 0.00 0.00 80 1018.6
20260906023342 76 37 0.0 0.0 0.00 0.00 0.00 80 1018.4
20260906022837 76 51 0.9 0.9 0.00 0.00 0.00 80 1018.1
20260906022337 76 50 0.0 0.9 0.00 0.00 0.00 79 1018.2
20260906021833 76 66 0.0 0.9 0.00 0.00 0.00 80 1018.0
20260906021332 76 216 0.0 1.7 0.00 0.00 0.00 80 1017.7
20260906020827 75 218 1.7 1.7 0.00 0.00 0.00 80 1017.8
20260906020326 75 131 0.0 1.7 0.00 0.00 0.00 82 1017.6
20260906015821 74 55 0.0 0.0 0.00 0.00 0.00 82 1017.4
20260906015321 75 49 0.0 0.9 0.00 0.00 0.00 82 1017.3
20260906014820 75 58 0.0 0.9 0.00 0.00 0.00 80 1017.3
20260906014316 76 7 0.9 1.7 0.00 0.00 0.00 80 1017.1
20260906013812 76 50 0.0 1.7 0.00 0.00 0.00 79 1016.8
20260906013307 76 51 0.9 1.7 0.00 0.00 0.00 78 1016.5
20260906012802 76 60 0.9 1.7 0.00 0.00 0.00 79 1016.6
20260906012257 76 66 0.0 1.7 0.00 0.00 0.00 78 1016.7
20260906011753 77 43 0.0 1.7 0.00 0.00 0.00 78 1016.3
20260906011252 77 65 0.9 2.6 0.00 0.00 0.00 77 1016.5
20260906010748 77 26 0.9 1.7 0.00 0.00 0.00 77 1016.5
20260906010244 77 13 0.9 1.7 0.00 0.00 0.00 76 1016.5
20260906005739 78 13 0.0 1.7 0.00 0.00 0.00 76 1016.1
20260906005238 78 8 0.9 1.7 0.00 0.00 0.00 76 1016.1
20260906004737 78 29 1.7 3.5 0.00 0.00 0.00 75 1015.9
20260906004232 78 56 0.0 1.7 0.00 0.00 0.00 76 1016.0
20260906003727 78 67 0.0 1.7 0.00 0.00 0.00 75 1015.8
20260906003223 79 339 0.0 1.7 0.00 0.00 0.00 74 1015.7
20260906002723 79 47 0.9 3.5 0.00 0.00 0.00 73 1015.7
20260906002218 79 40 1.7 1.7 0.00 0.00 0.00 73 1015.5
20260906001713 80 23 0.0 3.5 0.00 0.00 0.00 72 1015.5
20260906001213 80 57 1.7 3.5 0.00 0.00 0.00 72 1015.5
20260906000709 80 57 1.7 1.7 0.00 0.00 0.00 72 1015.7
20260906000204 80 89 0.0 2.6 0.00 0.00 0.00 71 1015.8
20260905235702 81 53 1.7 4.3 0.00 0.00 0.00 71 1015.9
20260905235158 81 45 1.7 1.7 0.00 0.00 0.00 71 1015.9
20260905234653 81 89 0.0 2.6 0.00 0.00 0.00 70 1016.0
20260905234148 82 347 0.9 1.7 0.00 0.00 0.00 70 1015.7
20260905233644 82 40 1.7 2.6 0.00 0.00 0.00 69 1015.8
20260905233143 82 52 1.7 3.5 0.00 0.00 0.00 68 1015.5
20260905232638 82 44 1.7 4.3 0.00 0.00 0.00 68 1015.6
20260905232134 82 298 0.9 3.5 0.00 0.00 0.00 68 1015.4
20260905231629 82 39 0.9 5.2 0.00 0.00 0.00 68 1015.4
20260905231125 82 9 0.9 0.9 0.00 0.00 0.00 68 1015.3
20260905230620 82 11 1.7 1.7 0.00 0.00 0.00 67 1015.1
20260905230119 82 25 1.7 3.5 0.00 0.00 0.00 67 1015.2
20260905225618 83 20 3.5 5.2 0.00 0.00 0.00 67 1015.3
20260905225108 83 297 0.0 1.7 0.00 0.00 0.00 68 1015.3
20260905224607 82 14 1.7 3.5 0.00 0.00 0.00 68 1015.6
20260905224107 83 54 1.7 5.2 0.00 0.00 0.00 67 1015.4
20260905223604 83 10 1.7 5.2 0.00 0.00 0.00 67 1015.3
20260905223100 83 2 2.6 4.3 0.00 0.00 0.00 67 1015.5
20260905222600 83 27 2.6 5.2 0.00 0.00 0.00 67 1015.6
20260905222055 84 81 0.0 1.7 0.00 0.00 0.00 65 1015.7
20260905221551 84 33 1.7 5.2 0.00 0.00 0.00 65 1015.4
20260905221047 85 3 1.7 2.6 0.00 0.00 0.00 66 1015.5
20260905220543 85 302 1.7 4.3 0.00 0.00 0.00 64 1015.7
20260905220039 84 349 1.7 4.3 0.00 0.00 0.00 64 1015.7
20260905215538 85 65 2.6 3.5 0.00 0.00 0.00 65 1015.7
20260905215034 85 20 1.7 2.6 0.00 0.00 0.00 65 1015.6
20260905214530 85 14 3.5 4.3 0.00 0.00 0.00 64 1015.6
20260905214025 86 24 1.7 2.6 0.00 0.00 0.00 63 1015.3
20260905213520 85 347 0.9 5.2 0.00 0.00 0.00 67 1015.3
20260905213016 86 131 2.6 4.3 0.00 0.00 0.00 65 1015.4
20260905212510 85 37 1.7 1.7 0.00 0.00 0.00 65 1015.4
20260905212010 85 31 1.7 2.6 0.00 0.00 0.00 65 1015.6
20260905211505 85 14 2.6 3.5 0.00 0.00 0.00 63 1015.8
20260905211001 86 89 0.0 2.6 0.00 0.00 0.00 62 1016.1
20260905210456 84 40 3.5 7.0 0.00 0.00 0.00 63 1016.3
20260905205955 85 300 0.9 2.6 0.00 0.00 0.00 64 1016.3
20260905205450 85 113 0.0 3.5 0.00 0.00 0.00 64 1016.6
20260905204949 86 52 0.0 1.7 0.00 0.00 0.00 62 1016.5
20260905204445 86 24 0.9 1.7 0.00 0.00 0.00 64 1016.5
20260905203944 84 68 0.9 3.5 0.00 0.00 0.00 67 1016.5
20260905203440 83 218 0.0 4.3 0.00 0.00 0.00 69 1016.6
20260905202935 82 70 1.7 6.1 0.00 0.00 0.00 69 1016.9
20260905202430 84 331 0.9 2.6 0.00 0.00 0.00 67 1016.7
20260905201926 83 305 1.7 2.6 0.00 0.00 0.00 67 1016.9
20260905201421 84 52 0.9 1.7 0.00 0.00 0.00 68 1017.0
20260905200921 84 287 0.9 2.6 0.00 0.00 0.00 67 1017.2
20260905200417 82 35 1.7 3.5 0.00 0.00 0.00 70 1017.4
20260905195915 82 40 1.7 4.3 0.00 0.00 0.00 70 1017.4
20260905195410 82 322 0.0 2.6 0.00 0.00 0.00 70 1017.5
20260905194906 82 70 1.7 4.3 0.00 0.00 0.00 71 1017.7
20260905194400 82 260 1.7 3.5 0.00 0.00 0.00 71 1017.6
20260905193859 82 114 1.7 5.2 0.00 0.00 0.00 72 1017.5
20260905193354 84 159 0.9 1.7 0.00 0.00 0.00 69 1017.3
20260905192850 83 0 0.0 2.6 0.00 0.00 0.00 71 1017.7
20260905192345 83 290 0.9 1.7 0.00 0.00 0.00 70 1017.5
20260905191844 84 174 0.9 1.7 0.00 0.00 0.00 69 1017.6
20260905191344 85 294 0.0 1.7 0.00 0.00 0.00 67 1017.4
20260905190837 83 222 0.0 2.6 0.00 0.00 0.00 70 1017.7
20260905190331 81 135 0.0 1.7 0.00 0.00 0.00 74 1017.4
20260905185829 81 41 0.0 1.7 0.00 0.00 0.00 76 1017.6
20260905185325 82 70 0.0 2.6 0.00 0.00 0.00 73 1017.5
20260905184818 80 249 1.7 3.5 0.00 0.00 0.00 74 1017.8
20260905184318 81 47 1.7 2.6 0.00 0.00 0.00 75 1017.7
20260905183816 81 316 0.9 2.6 0.00 0.00 0.00 78 1017.7
20260905183312 81 46 2.6 3.5 0.00 0.00 0.00 75 1017.5
20260905182811 80 57 1.7 1.7 0.00 0.00 0.00 76 1017.7
20260905182306 80 42 1.7 2.6 0.00 0.00 0.00 78 1017.9
20260905181802 80 306 0.9 2.6 0.00 0.00 0.00 78 1017.8
20260905181300 79 61 1.7 2.6 0.00 0.00 0.00 79 1017.7
20260905180754 79 192 0.9 1.7 0.00 0.00 0.00 79 1018.0
20260905180250 78 36 1.7 2.6 0.00 0.00 0.00 81 1018.0
20260905175750 78 109 0.9 1.7 0.00 0.00 0.00 81 1018.1
20260905175245 78 224 0.0 1.7 0.00 0.00 0.00 81 1018.1
20260905174739 78 334 0.0 2.6 0.00 0.00 0.00 81 1018.0
20260905174235 77 356 1.7 1.7 0.00 0.00 0.00 84 1017.9